Saint Simons Island, GA

9:28 AM EDT on August 25, 2016 (GMT -0400)
McKinnon

Weather History for KSSI - May, 2013

Change the Weather History Date:

Tuesday, May 7, 2013

  Actual Average Record
Temperature  
Mean Temperature 68 °F 72 °F  
Max Temperature 76 °F 80 °F 95 °F (1952)
Min Temperature 59 °F 64 °F 48 °F (1992)
Degree Days  
Heating Degree Days 0 0  
Month to date heating degree days 1 2  
Since 1 July heating degree days 1268 1486  
Cooling Degree Days 3 7  
Month to date cooling degree days 23 47  
Year to date cooling degree days 169 190  
Growing Degree Days 17 (Base 50)    
Moisture  
Dew Point 52 °F    
Average Humidity 61    
Maximum Humidity 80    
Minimum Humidity 41    
Precipitation  
Precipitation 0.00 in 0.06 in 0.98 in (1981)
Month to date precipitation 3.23 0.37  
Year to date precipitation 12.25 13.43  
Snow  
Snow 0.00 in - 0.00 in ()
Month to date snowfall 0.0  
Since 1 July snowfall 0.0  
Snow Depth 0.00 in    
Sea Level Pressure  
Sea Level Pressure 29.96 in    
Wind  
Wind Speed 7 mph (West)    
Max Wind Speed 16 mph    
Max Gust Speed 22 mph    
Visibility 10 miles    
Events      
T = Trace of Precipitation, MM = Missing Value Source: NWS Daily Summary

Daily Weather History Graph

Daily Weather History Graph

Search for Another Location

Airport or City:

Trip Planner

Search our weather history database for the weather conditions in past years. The results will help you decide how hot, cold, wet, or windy it might be!

Date:

Astronomy

May. 07, 2013 Rise Set
Actual Time 6:35 AM EDT 8:09 PM EDT
Civil Twilight 6:09 AM EDT 8:35 PM EDT
Nautical Twilight 5:38 AM EDT 9:06 PM EDT
Astronomical Twilight 5:05 AM EDT 9:39 PM EDT
Moon 5:00 AM EDT (5/7) 6:13 PM EDT (5/7)
Length of Visible Light 14h 25m
Length of Day
13h 33m
Waning Crescent, 5% of the Moon is Illuminated
May 7
Waning Crescent
May 9
New
May 18
First Quarter
May 25
Full
May 31
Last Quarter

Hourly Weather History & Observations

Time (EDT) Temp. Dew Point Humidity Pressure Visibility Wind Dir Wind Speed Gust Speed Precip Events Conditions
12:53 AM 61.0 °F 50.0 °F 67% 29.96 in 10.0 mi WSW 4.6 mph - N/A   Clear
1:53 AM 59.0 °F 51.1 °F 75% 29.96 in 10.0 mi WSW 8.1 mph - N/A   Clear
2:53 AM 60.1 °F 52.0 °F 75% 29.94 in 10.0 mi WSW 8.1 mph - N/A   Mostly Cloudy
3:53 AM 59.0 °F 51.8 °F 77% 29.93 in 10.0 mi WSW 5.8 mph - N/A   Partly Cloudy
4:53 AM 60.1 °F 53.1 °F 78% 29.93 in 10.0 mi West 6.9 mph - N/A   Overcast
5:53 AM 59.0 °F 53.1 °F 81% 29.94 in 10.0 mi WSW 5.8 mph - N/A   Overcast
6:53 AM 59.0 °F 53.1 °F 81% 29.94 in 10.0 mi WSW 6.9 mph - N/A   Overcast
7:53 AM 61.0 °F 53.1 °F 75% 29.96 in 10.0 mi SW 11.5 mph - N/A   Mostly Cloudy
8:53 AM 63.0 °F 54.0 °F 72% 29.97 in 10.0 mi WSW 9.2 mph - N/A   Mostly Cloudy
9:53 AM 66.0 °F 54.0 °F 65% 29.98 in 10.0 mi West 11.5 mph - N/A   Clear
10:53 AM 69.1 °F 54.0 °F 58% 29.98 in 10.0 mi WSW 10.4 mph - N/A   Scattered Clouds
11:53 AM 71.1 °F 54.0 °F 55% 29.98 in 10.0 mi WSW 12.7 mph 18.4 mph N/A   Overcast
12:53 PM 72.0 °F 52.0 °F 49% 29.96 in 10.0 mi WSW 12.7 mph 19.6 mph N/A   Mostly Cloudy
1:53 PM 73.0 °F 53.1 °F 49% 29.95 in 10.0 mi West 9.2 mph 17.3 mph N/A   Scattered Clouds
2:53 PM 75.0 °F 52.0 °F 44% 29.94 in 10.0 mi WSW 13.8 mph 19.6 mph N/A   Scattered Clouds
3:53 PM 75.9 °F 53.1 °F 45% 29.92 in 10.0 mi WNW 6.9 mph - N/A   Mostly Cloudy
4:53 PM 75.9 °F 50.0 °F 40% 29.92 in 10.0 mi West 11.5 mph 17.3 mph N/A   Mostly Cloudy
5:53 PM 73.0 °F 52.0 °F 48% 29.93 in 10.0 mi WNW 8.1 mph - N/A   Mostly Cloudy
6:53 PM 73.0 °F 51.1 °F 46% 29.94 in 10.0 mi West 5.8 mph - N/A   Mostly Cloudy
7:53 PM 72.0 °F 50.0 °F 46% 29.96 in 10.0 mi WNW 5.8 mph - N/A   Partly Cloudy
8:53 PM 69.1 °F 50.0 °F 51% 29.98 in 10.0 mi NW 3.5 mph - N/A   Clear
9:53 PM 66.9 °F 51.1 °F 57% 29.99 in 10.0 mi Calm Calm - N/A   Clear
10:53 PM 64.0 °F 53.1 °F 67% 30.01 in 10.0 mi Calm Calm - N/A   Clear
11:53 PM 61.0 °F 53.1 °F 75% 30.01 in 10.0 mi Calm Calm - N/A   Clear